Regional Weather Roundup
Issued by NWS

Home | Current Version | Previous Version | Graphics & Text | Print | Product List | Glossary On
Versions: 1 2 3 4 5 6 7 8 9 10 11 12 13 14 15 16 17 18 19 20 21 22 23 24 25 26 27 28 29 30 31 32 33 34 35 36 37 38 39 40 41 42 43 44 45 46 47 48 49 50
000
ASUS43 KMPX 230301
RWRMN
WEATHER ROUNDUP FOR MINNESOTA
NATIONAL WEATHER SERVICE TWIN CITIES/CHANHASSEN MN
1000 PM CDT MON MAY 22 2017


NOTE: "FAIR" INDICATES FEW OR NO CLOUDS BELOW 12,000 FEET WITH NO
SIGNIFICANT WEATHER AND/OR OBSTRUCTIONS TO VISIBILITY. N/A MEANS
CURRENT SKY AND/OR WEATHER CONDITIONS ARE NOT AVAILABLE.

MNZ060>063-068>070-230400-
   Twin Cities Metro

CITY           SKY/WX    TMP DP  RH WIND       PRES   REMARKS
TWIN CITIES    CLOUDY    59  41  51 N12G24    29.83R
ST PAUL        CLOUDY    58  44  60 N9        29.84R
CRYSTAL        CLOUDY    56  40  55 NW5       29.83R
BLAINE         MOCLDY    55  45  67 NW3       29.83S
LAKEVILLE      DRIZZLE   55  45  67 W3        29.84R
EDEN PRAIRIE   CLOUDY    59  44  57 N7        29.83R
SOUTH ST PAUL  CLOUDY    59  42  54 N5        29.83R
LAKE ELMO      MOCLDY    54  45  71 NW3       29.84S
$$
MNZ001>005-007-008-013>017-022>024-027-028-230400-
   Northwest Minnesota

CITY           SKY/WX    TMP DP  RH WIND       PRES   REMARKS
BEMIDJI        CLOUDY    45  44  96 NW3       29.86R
HALLOCK        CLOUDY    48  46  93 N9        29.93R
ROSEAU         CLOUDY    48  43  81 N9        29.90R
WARROAD        DRIZZLE   46  45  93 N8        29.90R
CROOKSTON      CLOUDY    48  46  93 N8        29.91R
FOSSTON        MIX PCPN  45  43  93 N8        29.88R
DETROIT LAKES  CLOUDY    46  45  93 NW6       29.88S
MOORHEAD       CLOUDY    48  45  87 NW10      29.90R
PARK RAPIDS    CLOUDY    45  41  86 NW5       29.85S
MAHNOMEN       CLOUDY    46  44  92 N6        29.87S
$$
MNZ006-009>011-018-025>026-230400-
   North Central Minnesota

CITY           SKY/WX    TMP DP  RH WIND       PRES   REMARKS
BAUDETTE       CLOUDY    47  45  93 N6        29.86R
FLAG ISLAND    CLOUDY    48  45  87 N17       29.88S
INTL FALLS     LGT RAIN  47  45  93 NW5       29.83R FOG
WASKISH        CLOUDY    46  45  93 N6        29.86R
BIG FORK       RAIN      45  45 100 CALM      29.84R
LONGVILLE      DRIZZLE   45  43  93 NW5       29.85R
GRAND RAPIDS   CLOUDY    47  42  83 N6        29.86R
CRANE LAKE     CLOUDY    45  43  93 CALM      29.85R
ORR            CLOUDY    45  41  87 CALM      29.81R
COOK           CLOUDY    46  43  87 CALM      29.83S
WALKER         CLOUDY    43  42  97 CALM      29.85S
$$
MNZ012-019>021-037-230400-
   Northeast Minnesota

CITY           SKY/WX    TMP DP  RH WIND       PRES   REMARKS
DULUTH         MOCLDY    49  43  80 N5        29.82S
ELY            CLOUDY    45  45 100 CALM      29.83R
HIBBING        CLOUDY    44  43  96 CALM      29.83R
EVELETH        CLOUDY    45  41  87 CALM      29.84R
DULUTH HARBOR  CLOUDY    50  45  81 N7        29.83S
TWO HARBORS    CLOUDY    52  46  82 CALM      29.81S
SILVER BAY     CLOUDY    48  46  93 CALM      29.80S
GRAND MARAIS     N/A     43  40  89 CALM      29.81R
G MARAIS ARPRT CLOUDY    45  39  81 CALM      29.82R
$$
MNZ029>031-032-039>041-046>048-054>057-064-230400-
   West Central Minnesota

CITY           SKY/WX    TMP DP  RH WIND       PRES   REMARKS
FERGUS FALLS   CLOUDY    46  43  87 N7        29.88R
WHEATON        DRIZZLE   48  43  81 NW5       29.91S
MORRIS         CLOUDY    50  43  76 NW15      29.87S
ALEXANDRIA     CLOUDY    49  42  77 N5        29.87R
ELBOW LAKE     DRIZZLE   47  44  87 W10       29.88S
WADENA         LGT RAIN  45  41  87 N7        29.86R
GLENWOOD       CLEAR     46  43  87 W6        29.87S
APPLETON       PTCLDY    52  45  76 NW6       29.89R
BENSON         PTCLDY    46  43  87 N7        29.90R
ORTONVILLE     CLOUDY    52  43  71 NW9       29.89S
MADISON        CLOUDY    54  45  71 N8        29.90R
WILLMAR        CLOUDY    52  45  76 NW5       29.89R
$$
MNZ033>034-036-042>043-049>051-058-059-230400-
   Central Minnesota

CITY           SKY/WX    TMP DP  RH WIND       PRES   REMARKS
ST CLOUD       PTCLDY    46  42  86 NW7       29.84S
SAUK CENTRE    FAIR      47  41  77 NW6       29.86R
PAYNESVILLE    CLOUDY    49  43  79 W3        29.87R
AITKIN         CLOUDY    45  43  93 CALM      29.82S FOG
PINE RIVER     DRIZZLE   46  46 100 CALM      29.88S
BRAINERD       CLOUDY    49  42  77 N5        29.84S
STAPLES        CLOUDY    46  41  81 N9        29.85S
LONG PRAIRIE   MOCLDY    45  39  81 W5        29.86R
LITTLE FALLS   CLOUDY    45  41  87 CALM      29.85R
LITCHFIELD     CLOUDY    55  45  67 NW5       29.86S
BUFFALO        CLOUDY    55  40  58 NW5       29.85R
MAPLE LAKE     CLOUDY    54  44  68 NW5       29.86R
HUTCHINSON     CLOUDY    55  46  70 NW5       29.87R
$$
MNZ037-044-045-052-053-230400-
   East Central Minnesota

CITY           SKY/WX    TMP DP  RH WIND       PRES   REMARKS
PRINCETON      CLOUDY    48  45  87 CALM      29.84F
MORA           CLOUDY    48  45  87 CALM      29.85R
CAMBRIDGE      CLOUDY    50  43  76 CALM      29.82S
RUSH CITY      CLOUDY    48  44  85 N3        29.83F
MOOSE LAKE     MOCLDY    45  43  93 CALM      29.82R
HINCKLEY       CLOUDY    48  46  93 CALM      29.84R
CLOQUET        CLOUDY    48  43  81 NW6       29.83R
MCGREGOR       CLOUDY    46  43  87 CALM      29.84S
$$
MNZ071>073-080-081-089-090-097-098-230400-
   Southwest Minnesota

CITY           SKY/WX    TMP DP  RH WIND       PRES   REMARKS
MONTEVIDEO     CLOUDY    52  43  71 N5        29.89R
CANBY          CLOUDY    51  45  78 CALM      29.91S
MARSHALL       CLOUDY    52  46  80 N9        29.90R
REDWOOD FALLS  CLOUDY    54  43  66 NW7       29.87R
OLIVIA         CLOUDY    54  43  66 NW6       29.87R
PIPESTONE      CLOUDY    50  45  81 NW6       29.92R
WINDOM         RAIN      52  48  87 NW6       29.89R
WORTHINGTON    CLOUDY    51  45  79 NW13      29.90R
JACKSON        CLOUDY    50  46  87 NW8       29.88R
TRACY          LGT RAIN  51  50  95 W6        29.90R
SLAYTON        LGT RAIN  48  47  95 NW8       29.91R
$$
MNZ065>067-074>077-082>085-091>093-230400-
   South Central Minnesota

CITY           SKY/WX    TMP DP  RH WIND       PRES   REMARKS
MANKATO        RAIN      52  50  93 NW8       29.87R
NEW ULM        LGT RAIN  52  50  93 CALM      29.86S
ST JAMES       CLOUDY    52  48  87 N7        29.87S
FAIRMONT       LGT RAIN  53  49  86 NW12      29.87R
GLENCOE        CLOUDY    57  48  70 NW6       29.85R
FARIBAULT      RAIN      54  52  94 SW9       29.86R
OWATONNA       LGT RAIN  54  50  87 W6        29.85R
WASECA         DRIZZLE   52  50  93 NW9       29.86S
ALBERT LEA     PTCLDY    54  52  94 N5        29.83S
$$
MNZ078>079-086>088-094>096-230400-
   Southeast Minnesota

CITY           SKY/WX    TMP DP  RH WIND       PRES   REMARKS
ROCHESTER      LGT RAIN  55  52  89 SW12      29.85R
RED WING       MOCLDY    57  46  67 CALM      29.81S
STANTON        LGT RAIN  56  51  85 CALM      29.82R
DODGE CENTER   RAIN      54  50  87 W7        29.85R
WINONA         CLOUDY    59  50  72 CALM      29.81R
AUSTIN         CLOUDY    52  48  87 CALM      29.83F
PRESTON        CLOUDY    53  50  90 NE3       29.84S
$$
ABBREVIATIONS USED IN REMARKS
   TC - TEMPERATURES IN CELSIUS
  WCI - WIND CHILL INDEX
   HX - HEAT INDEX
  VSB - VISIBILITY
$$



USA.gov is the U.S. government's official web portal to all federal, state and local government web resources and services.